{"data":{"norad_id":58143,"epoch":"2026-05-25T04:02:30.637824Z","epoch_age_seconds":60231,"freshness":"FRESH","line1":"1 58143U 23163C   26145.16841016  .00003424  00000+0  16874-3 0  9992","line2":"2 58143  34.9923 152.4098 0002395  36.9961 323.0916 15.17458503143815","mean_motion":15.17458503,"eccentricity":0.0002395,"inclination_deg":34.9923,"raan_deg":152.4098,"arg_perigee_deg":36.9961,"mean_anomaly_deg":323.0916,"bstar":0.00016874,"rev_number":14381,"period_min":94.895510958167,"perigee_km":511.87428112825,"apogee_km":515.1753871468,"semimajor_km":6891.6618341375,"source":"CELESTRAK","updated_at":"2026-05-25T13:38:00.543535Z"}}